User: anonymous   Login
Location: eljas
(40.1958°N, 6.8661°W)
Time: 23:14:58
(UTC+01:00)
Language:

Okean O Rocket - Orbit

View from above orbital plane
View from above orbital plane
View from above satellite
View from above satellite

Ground track
Ground track

The orbit data is extracted from the following two-line orbital elements,

1 25861U 99039B   16344.99641388  .00000074  00000-0  17470-4 0  9992
2 25861  98.0791 309.3362 0015140 335.5613  64.5167 14.78371130937824
Epoch (UTC): 09 December 2016 23:54:50
Eccentricity: 0.0015140
inclination: 98.0791°
perigee height: 624 km
apogee height: 645 km
right ascension of ascending node: 309.3362°
argument of perigee: 335.5613°
revolutions per day: 14.78371130
mean anomaly at epoch: 64.5167°
orbit number at epoch: 93782

The dashed part of the orbit path shows where the satellite is in the earth's shadow,  

DLR